ABL9502 RKPC-RKSS

Flight info

Callsign ABL9502
Flight time 0h 46m
Altitude 23000
Route KAMIT Y722 OLMEN
Aircraft A320/M-SDE3FGHIRWY/LB1

Departure

Time 2025-09-05 12:56
Airport Jeju International Airport (RKPC)

Arrival

Time 2025-09-05 13:42
Airport Gimpo International Airport (RKSS)
Time Latitude Longitude Altitude Speed Heading
2025-09-05 12:36 33.50673 126.48745 90 ft 0 kts 328°
2025-09-05 12:49 33.50688 126.48734 90 ft 7 kts 328°
2025-09-05 12:49 33.50729 126.48671 90 ft 13 kts 262°
2025-09-05 12:50 33.50549 126.48311 91 ft 19 kts 238°
2025-09-05 12:50 33.50476 126.48169 93 ft 21 kts 238°
2025-09-05 12:50 33.50316 126.47855 93 ft 23 kts 238°
2025-09-05 12:51 33.50042 126.47322 96 ft 27 kts 238°
2025-09-05 12:51 33.49944 126.47131 97 ft 25 kts 238°
2025-09-05 12:52 33.49894 126.46934 98 ft 13 kts 318°
2025-09-05 12:53 33.49920 126.46915 97 ft 4 kts 328°
2025-09-05 12:53 33.49965 126.46881 97 ft 9 kts 328°
2025-09-05 12:53 33.50048 126.46953 97 ft 23 kts 58°
2025-09-05 12:54 33.50713 126.48250 92 ft 148 kts 58°
2025-09-05 12:54 33.51971 126.50676 885 ft 177 kts 59°
2025-09-05 12:55 33.53750 126.52798 1689 ft 202 kts 19°
2025-09-05 12:55 33.56776 126.53751 2089 ft 248 kts 16°
2025-09-05 12:56 33.60261 126.54965 3237 ft 271 kts 17°
2025-09-05 12:56 33.63970 126.56251 4816 ft 279 kts 16°
2025-09-05 12:57 33.69096 126.57997 6803 ft 290 kts 15°
2025-09-05 12:58 33.73001 126.59318 8200 ft 297 kts 15°
2025-09-05 12:58 33.77019 126.60679 9580 ft 303 kts 14°
2025-09-05 12:58 33.79063 126.61369 10210 ft 307 kts 14°
2025-09-05 12:59 33.88237 126.64475 11426 ft 361 kts 14°
2025-09-05 13:00 33.90661 126.65301 11970 ft 364 kts 14°
2025-09-05 13:00 33.95583 126.66982 13019 ft 371 kts 14°
2025-09-05 13:00 33.98076 126.67827 13520 ft 375 kts 14°
2025-09-05 13:01 34.03136 126.69547 14459 ft 380 kts 14°
2025-09-05 13:02 34.10849 126.72182 15854 ft 388 kts 14°
2025-09-05 13:02 34.16074 126.73971 16763 ft 393 kts 14°
2025-09-05 13:02 34.18710 126.74872 17214 ft 395 kts 14°
2025-09-05 13:03 34.24037 126.76684 18135 ft 400 kts 12°
2025-09-05 13:04 34.32372 126.77897 19307 ft 407 kts
2025-09-05 13:04 34.38055 126.78493 20095 ft 412 kts
2025-09-05 13:05 34.43817 126.79110 20829 ft 420 kts
2025-09-05 13:05 34.49758 126.79743 21284 ft 434 kts
2025-09-05 13:06 34.55817 126.80392 21949 ft 440 kts
2025-09-05 13:06 34.61949 126.81054 22594 ft 446 kts
2025-09-05 13:06 34.65013 126.81383 22703 ft 452 kts
2025-09-05 13:07 34.71412 126.82068 22961 ft 464 kts
2025-09-05 13:08 34.81286 126.83121 22959 ft 485 kts
2025-09-05 13:08 34.88075 126.83850 22962 ft 495 kts
2025-09-05 13:09 34.94982 126.84598 22961 ft 500 kts
2025-09-05 13:09 35.01932 126.85349 22959 ft 501 kts
2025-09-05 13:10 35.08871 126.86113 22962 ft 501 kts
2025-09-05 13:10 35.15763 126.86859 22957 ft 500 kts
2025-09-05 13:11 35.22697 126.87601 22950 ft 500 kts
2025-09-05 13:11 35.26161 126.87974 22944 ft 499 kts
2025-09-05 13:12 35.36579 126.89105 22940 ft 499 kts
2025-09-05 13:12 35.43451 126.89863 22938 ft 498 kts
2025-09-05 13:12 35.46902 126.90243 22937 ft 498 kts
2025-09-05 13:13 35.57257 126.91377 22933 ft 498 kts
2025-09-05 13:13 35.60710 126.91752 22933 ft 498 kts
2025-09-05 13:14 35.71056 126.92881 22924 ft 498 kts
2025-09-05 13:15 35.77956 126.93636 22922 ft 498 kts
2025-09-05 13:15 35.81404 126.94014 22922 ft 498 kts
2025-09-05 13:16 35.91587 126.95143 22923 ft 498 kts
2025-09-05 13:16 35.98482 126.95910 22920 ft 498 kts
2025-09-05 13:17 36.05383 126.96668 22915 ft 498 kts
2025-09-05 13:17 36.12281 126.97421 22908 ft 498 kts
2025-09-05 13:18 36.19172 126.98191 22906 ft 498 kts
2025-09-05 13:18 36.26067 126.98962 22908 ft 497 kts
2025-09-05 13:18 36.29515 126.99351 22910 ft 497 kts
2025-09-05 13:19 36.36410 127.00125 22464 ft 496 kts
2025-09-05 13:20 36.46390 127.00097 20662 ft 464 kts 356°
2025-09-05 13:20 36.51672 126.99902 19704 ft 450 kts 356°
2025-09-05 13:21 36.58868 126.99632 18409 ft 436 kts 355°
2025-09-05 13:21 36.64861 126.99415 17193 ft 427 kts 356°
2025-09-05 13:22 36.69781 126.99260 16205 ft 423 kts 358°
2025-09-05 13:22 36.75391 127.00713 15916 ft 400 kts 18°
2025-09-05 13:22 36.77858 127.01822 15931 ft 391 kts 17°
2025-09-05 13:23 36.83012 127.03892 15933 ft 388 kts 13°
2025-09-05 13:24 36.90869 127.06366 15934 ft 388 kts 11°
2025-09-05 13:24 36.96121 127.07936 15781 ft 389 kts 11°
2025-09-05 13:25 37.01317 127.09549 15083 ft 379 kts 12°
2025-09-05 13:25 37.06348 127.11145 14405 ft 368 kts 12°
2025-09-05 13:26 37.11248 127.12688 13731 ft 359 kts 12°
2025-09-05 13:26 37.16032 127.14194 12976 ft 351 kts 12°
2025-09-05 13:26 37.18392 127.14937 12604 ft 348 kts 12°
2025-09-05 13:27 37.23037 127.16404 11991 ft 338 kts 12°
2025-09-05 13:28 37.29605 127.18475 12005 ft 320 kts 12°
2025-09-05 13:28 37.33926 127.18512 12012 ft 311 kts 335°
2025-09-05 13:29 37.37078 127.15108 11716 ft 297 kts 294°
2025-09-05 13:29 37.38203 127.10185 11237 ft 293 kts 280°
2025-09-05 13:30 37.39110 127.05210 10766 ft 291 kts 280°
2025-09-05 13:30 37.39559 127.02734 10536 ft 290 kts 280°
2025-09-05 13:30 37.40450 126.97836 10070 ft 288 kts 280°
2025-09-05 13:31 37.41389 126.92867 9024 ft 289 kts 287°
2025-09-05 13:32 37.43773 126.86058 8463 ft 285 kts 291°
2025-09-05 13:32 37.45364 126.81491 8104 ft 283 kts 291°
2025-09-05 13:33 37.46812 126.76910 7685 ft 280 kts 287°
2025-09-05 13:33 37.48077 126.72292 7231 ft 278 kts 286°
2025-09-05 13:34 37.48949 126.67613 6771 ft 273 kts 275°
2025-09-05 13:34 37.49202 126.65247 6523 ft 273 kts 275°
2025-09-05 13:34 37.49888 126.60570 6036 ft 273 kts 289°
2025-09-05 13:35 37.52151 126.56742 5569 ft 270 kts 312°
2025-09-05 13:36 37.56154 126.52401 4965 ft 254 kts 343°
2025-09-05 13:36 37.59345 126.53725 4309 ft 254 kts 46°
2025-09-05 13:37 37.61817 126.56849 3893 ft 251 kts 46°
2025-09-05 13:37 37.64249 126.59914 3376 ft 239 kts 45°
2025-09-05 13:38 37.66430 126.62813 2852 ft 218 kts 65°
2025-09-05 13:38 37.66629 126.64587 2701 ft 203 kts 111°
2025-09-05 13:38 37.64926 126.67351 2234 ft 201 kts 138°
2025-09-05 13:39 37.62963 126.69835 1735 ft 194 kts 138°
2025-09-05 13:40 37.60445 126.73009 1067 ft 150 kts 137°
2025-09-05 13:40 37.58996 126.74827 667 ft 146 kts 137°
2025-09-05 13:41 37.57561 126.76635 276 ft 144 kts 137°
2025-09-05 13:41 37.56181 126.78370 62 ft 119 kts 135°
2025-09-05 13:42 37.55515 126.79225 55 ft 24 kts 124°
2025-09-05 13:42 37.55454 126.79403 62 ft 16 kts 104°
2025-09-05 13:42 37.55447 126.79644 61 ft 7 kts 64°
2025-09-05 13:43 37.55453 126.79657 61 ft 0 kts 59°
2025-09-05 13:45 37.55473 126.79692 65 ft 11 kts 52°
2025-09-05 13:46 37.55449 126.79962 61 ft 18 kts 110°
2025-09-05 13:46 37.55431 126.80097 63 ft 15 kts 78°
2025-09-05 13:46 37.55555 126.80287 57 ft 14 kts 45°
2025-09-05 13:47 37.55598 126.80322 64 ft 0 kts 16°
2025-09-05 13:48 37.55665 126.80393 57 ft 7 kts 45°
2025-09-05 13:48 37.55691 126.80426 60 ft 0 kts 45°